cliquez pour ajouter le site Runraid à vos favoris  English version (google)  Retour à l'accueil Ecrire à l'auteur du site Runraid : Michel Jourdan



Les prochaines courses


Les derniers résultats

cliquez pour visualiser la page complète relatant la chronologie des éruptions du Piton de la Fournaise
éruptions Piton de la Fournaise


Ile de La Réunion

 Diagonale des Fous 

Ecrire au créateur du site : Michel Jourdan
Contact


2018-01-27 - Vibram Hong Kong 100 2018

Pour consulter le palmarès d'un coureur, un clic sur son nom !

Vous avez des remarques, corrections, ... sur ces résultats , un clic sur --> pour me transmettre toute information concernant les classements


Vibram Hong Kong 100 2018 - 2018 : classement des 500 finishers
Place Nom Temps Cat. Club Sexe Clt/cat.
Place Nom Temps Cat. Club Sexe Clt/cat.
1 QI Min 9:28:37 CHN Garmin / The North Fa M 0
2 NICHOLS Alex 9:44:18 USA SCOTT M 0
3 YU Yunhui 10:04:53 CHN M 0
4 TAMANG Purna 10:11:16 NEP Awoo M 0
5 JONES Harry 10:15:50 GBR Hoka One One / Runivo M 0
6 ELLIS John 10:35:56 AUS Gone Running-Joint Dy M 0
7 KULUNG Suman 10:38:27 NEP Awoo M 0
8 WONG Ho Chung 10:39:39 HKG The North Face Advent M 0
9 YAO Miao 10:40:52 CHN Kailas / The North Fa F 1ere F 0
10 MCFLYNN Brian 10:47:25 IRL M 0
11 ANDREWS Justin 10:50:01 USA M 0
12 LI Kuo 10:52:02 CHN Columbia M 0
13 DOI Takashi 10:56:01 JPN M 0
14 TSANG Siu Keung 10:57:53 HKG the north face / the M 0
15 QIN Yanzhong 10:59:32 CHN M 0
16 JI Zhengquan 10:59:34 CHN Hoka one one M 0
17 DENG Guomin 10:59:42 CHN salomon / salomon / s M 0
18 OSE Kazufumi 11:00:20 JPN salomon M 0
18 OSE Kazufumi 11:00:20 JPN Salomon / Suunto M 0
20 SHERPA Sange 11:01:09 NEP Team instinct M 0
21 BACKHAUSEN Majell 11:10:05 AUS M 0
22 RAI Mira 11:30:49 NEP Salomon F 2 F 0
23 REN Hao 11:32:03 CHN M 0
24 XIANG Fuzhao 11:36:11 CHN F 3 F 0
25 ZHOU Qixiang 11:39:18 CHN Hoka one one M 0
26 CURMER Gregoire 11:39:32 FRA Ravanel sports M 0
27 TSANG Chun Kit 11:48:05 HKG Vibram M 0
28 WANG ZiChen 11:51:07 CHN ULTRA GEAR / ULTRA GE M 0
29 LENG Mathieu 11:59:13 CAM M 0
30 MOORE Doug 12:01:13 NZL M 0
31 LANANTE Jorge Alyn Gil Jr 12:03:19 PHI M 0
32 VARASIN Phairat 12:03:20 THA Altra Running Thailan M 0
33 BOTTIN Rudy 12:10:12 FRA Team Grip Grab M 0
34 RITCEY Jeremy 12:12:08 CAN Salomon HK M 0
35 CHOU Ching 12:13:32 TPE M 0
36 LI Junfeng 12:14:28 CHN M 0
37 MCNAUGHTON Marie 12:15:30 NZL Gone Running Hong Kon F 4 F 0
38 GUO Weiqing 12:18:51 CHN M 0
39 YANG Jiagen 12:19:04 CHN Vibram / Toread M 0
40 NG Kwok Lun Allen 12:25:25 HKG M 0
41 PUYOU Baptiste 12:26:30 FRA Gone Running/Joint Dy M 0
42 ZHANG Hongfen 12:32:30 CHN Toread F 5 F 0
43 ALVELAIS GONZALEZ Joseluis 12:39:09 MEX M 0
44 LI Haifeng 12:43:36 CHN M 0
45 LAU Kam Yuen 12:46:28 HKG M 0
46 ONYSCHENKO Bogdan 12:47:48 UKR M 0
47 LIU Andrew 12:50:55 CHN M 0
48 THEODOSIS Dennis 12:52:02 AUS M 0
49 CHEN Gang 12:52:37 CHN M 0
50 EMERSON Ezra 12:53:12 GBR M 0
51 WETTSTEIN Salomon 12:53:54 SUI M 0
52 NALET Timothee 12:54:33 FRA M 0
53 CHUNG Kwong On 12:56:21 HKG M 0
54 MORTIMER Peter 12:58:02 GBR M 0
55 ZHOU Qi Peng 12:58:31 CHN M 0
56 CHEN Bo 12:58:54 CHN M 0
57 ZHANG Zuwei 12:59:19 CHN M 0
58 KNOBLOCH Matthias 13:00:18 GER M 0
59 GU Bing 13:00:46 CHN Tecnica / Kailas M 0
60 WU Ping 13:00:47 CHN M 0
61 LIAN Lingling 13:01:24 CHN M 0
62 CHEN Jie 13:02:08 CHN M 0
63 MORWOOD Sarah 13:02:38 GBR Leon Equipment/Torq n F 6 F 0
64 HUNG Ka Leung 13:03:08 HKG M 0
65 WING Ball 13:08:31 HKG M 0
66 TO Ming Shing 13:08:31 HKG M 0
67 ZONG Liangfei 13:11:18 CHN M 0
68 PENG Zhen Hui 13:12:34 CHN M 0
69 MA Yanxing 13:12:54 CHN F 7 F 0
70 PENICAUD Pierre 13:13:08 FRA Hong Kong Sports Clin M 0
71 WONG KaWai Jay 13:13:22 HKG M 0
72 MARGEIRSDOTTIR Elisabet 13:14:17 ISL F 8 F 0
73 LAM Shing Yip 13:14:38 HKG Salomon HK M 0
74 WANG Xiaolin 13:16:16 CHN M 0
75 LEHKONEN Henri 13:16:52 AUS Gone Running / Joint M 0
76 TANG Eric 13:16:53 AUS M 0
77 SHA Shi 13:19:47 CHN M 0
78 ORMISTON Michael 13:20:26 AUS M 0
79 ZHANG Weifeng 13:21:25 CHN M 0
80 FURUYA Nobuhiko 13:21:44 JPN M 0
81 ZHENG Zhizhong 13:22:05 CHN M 0
82 YE Xiao Ming 13:24:58 CHN M 0
83 CHEUNG Kei Fung Kevin 13:25:00 HKG M 0
84 KWAN Wai Chun 13:25:00 HKG Salomon M 0
85 XU Qiang 13:26:09 CHN M 0
86 MO Huifeng 13:27:01 CHN M 0
87 VRIENS Lodewijk Adriaan 13:27:38 NED M 0
88 KALOGEROPOULOS Nicole 13:28:52 USA Altra F 9 F 0
89 CAI Dumin 13:29:58 CHN M 0
90 ROBINSON Jason 13:35:37 GBR MKRC M 0
91 CHAMWEHA Poomiphat 13:35:38 THA M 0
92 ROLAND Stephanie 13:39:45 NAM F 10 F 0
93 KUONG Hou Wa Chuck 13:40:02 POR M 0
94 WANG Yangyang 13:41:55 CHN M 0
95 LEE Kong To 13:42:38 HKG M 0
96 WOODLAND Emily 13:43:01 GBR F 11 F 0
97 TSANG Ada 13:45:51 HKG F 12 F 0
98 DONG Minfei 13:46:20 CHN F 13 F 0
99 CHAN Wai Yiu 13:46:26 HKG M 0
100 CHUN FUNG Tam 13:46:26 HKG Team Columbia HK M 0
101 MARCHANT Tim 13:50:40 GBR M 0
102 CHENG Sai Kit Alger 13:51:47 HKG M 0
103 WANG Hangbing 13:51:57 CHN M 0
104 LI Bing 13:54:52 CHN M 0
105 ZHENG Liping 13:54:52 CHN F 14 F 0
106 LAU Hok Yee Leo 13:55:08 HKG M 0
107 WANG Jeanette 13:55:20 SGP F 15 F 0
108 BILLAUD Fabien 13:56:16 FRA M 0
109 GILBERT Francois 13:56:38 FRA M 0
110 CHING Flora Wing Yee 13:58:04 CAN F 16 F 0
111 REN Dapeng 13:58:36 CHN M 0
112 D'ISANTO Matteo 13:58:48 ITA M 0
113 LI Ngan 13:59:08 HKG M 0
114 LAU Nicole 14:00:41 HKG F 17 F 0
115 KENT Justin 14:01:18 USA M 0
116 EVANS Dwyfor 14:01:22 GBR M 0
117 TAQUET Charlotte 14:02:41 FRA F 18 F 0
118 WANG Biao 14:03:30 CHN M 0
119 TSUI Tsz Kin 14:05:23 HKG Team Gi / Runners Ath M 0
120 LAI Chi Ho 14:08:07 HKG M 0
121 INAUEN Markus 14:08:23 SUI M 0
122 LI Wei Hui 14:08:55 CHN M 0
123 LE BRAS Erwan 14:09:24 FRA M 0
124 LAQUA Nick 14:09:49 GER M 0
125 LI Wei 14:10:44 CHN F 19 F 0
126 PAJARO Paolo 14:12:09 ITA M 0
127 WONG Hon Hei Tommy 14:15:06 HKG M 0
128 MAJOR George 14:15:32 GBR M 0
129 LI Suhua 14:16:07 CHN M 0
130 ZHANG Yusheng 14:19:26 CHN M 0
131 YEUNG Chi Shing 14:22:15 HKG M 0
132 LIU Jia Qiang 14:23:17 CHN M 0
133 CRISAN POP Vlad Adrian 14:23:42 ROU M 0
134 LEUNG Chung Yan Eric 14:24:36 HKG WAA M 0
135 WANG Weihua 14:24:51 CHN M 0
136 CAO Ngoc Ha 14:25:17 VIE Long Distance Runners M 0
137 LAW Chor Kin 14:25:33 HKG Vibram M 0
138 GBAGUIDI Freddy 14:25:57 BEN M 0
139 CHANKRACHANG Tanapong 14:25:59 THA M 0
140 KAKINUMA Masato 14:26:24 JPN M 0
141 LIU Yuan 14:28:25 CHN M 0
142 CHAN Chi Fai Ivan 14:28:43 HKG M 0
143 RIVIERE Rosaire 14:31:25 FRA M 0
144 QU Shuai 14:32:54 CHN M 0
145 CHAN Hector 14:32:57 FRA M 0
146 SCOTT Natalia 14:36:32 POL F 20 F 0
147 SAEVARSOON Birgir 14:36:35 ISL M 0
148 NIWA Kaori 14:40:33 JPN Salomon F 21 F 0
149 LE CLAINCHE Pierre 14:40:36 FRA M 0
150 CHEN Xue 14:41:55 CHN F 22 F 0
151 ROUSSET Melanie 14:42:12 FRA WAA F 23 F 0
152 BORZANI Lisa 14:42:13 ITA Tecnica F 24 F 0
153 TIAN Jinghe 14:42:51 CHN M 0
154 CHAN Kin Ming 14:44:06 HKG M 0
155 LABATTU Sylvain 14:48:37 FRA M 0
156 TSE Man Ho Ryan 14:48:46 HKG M 0
157 YANG Ping 14:50:31 CHN M 0
158 EGGL Wolfgang 14:50:43 AUT M 0
159 ZHANG Quanhong 14:52:35 CHN M 0
160 FANG Zhengjie 14:52:35 CHN Vibram Trailrunning T M 0
161 NIU Chao 14:52:54 CHN M 0
162 SHI Hongxia 14:54:06 CHN F 25 F 0
163 CHENG Hoi Wah 14:54:34 HKG M 0
164 PANG Siu Chuen 14:54:44 HKG M 0
165 LEE Chi Ho Bryan 14:54:57 HKG M 0
166 YOSHINO Tsuyoshi 14:55:32 JPN M 0
167 LAM Wicky Gloria Livia 14:55:43 HKG M 0
168 LAW Ka Leung 14:57:10 HKG M 0
169 ZHANG Chuanzhi 14:58:02 CHN M 0
170 CHRISTIANSSON Frida 15:00:37 SWE F 26 F 0
171 XU Linju 15:00:53 CHN F 27 F 0
172 ZHANG Yilin 15:02:49 CHN M 0
173 WANG Ming 15:04:20 CHN M 0
174 WU Baoping 15:04:25 CHN M 0
175 MOK Wai Lun 15:04:35 HKG M 0
176 PARDUE Jason 15:05:01 USA M 0
177 DE ROFFIGNAC Olivier 15:05:18 FRA M 0
178 LEI Justo 15:05:21 AUS M 0
179 HRAFN KIERNAN Sigur ur 15:06:26 ISL M 0
180 YU Yue 15:07:17 M 0
181 IRASTORZA Mikel Leal 15:07:20 ESP M 0
182 HO Chak Lam 15:07:31 HKG Dream Chasing Action M 0
183 PIECHA Artur 15:08:34 POL T-MOBILE RUNNING TEAM M 0
184 LIU Hongjin 15:11:14 HKG Power ZENWEAL M 0
185 LI Yutao 15:11:18 CHN M 0
186 ANEVALL Linus 15:12:05 SWE M 0
187 KO Ethan 15:12:12 HKG Avenahte / TRab M 0
188 WU dong 15:12:24 CHN M 0
189 WU Zhenyu 15:12:29 CHN M 0
190 LEAL MArio 15:12:38 POR M 0
191 DORMIO Xavier 15:13:01 FRA M 0
192 TELLIAS James 15:13:19 PHI M 0
193 AU Pak Cheung 15:14:10 HKG M 0
194 LIU Shibo 15:14:19 CHN M 0
195 XIONG pengpeng 15:14:19 CHN M 0
196 BROWN Joseph 15:14:29 USA M 0
197 CUI Yongping 15:15:22 CHN M 0
198 FENG Jianhui 15:15:48 CHN M 0
199 BADDILEY Nicolas 15:16:44 AUS M 0
200 WENGER Andreas 15:16:46 SUI M 0
201 WU Haitong 15:17:03 CHN M 0
202 WONG Wai Lun 15:17:43 HKG FAITHWALKERS M 0
203 WEI Ting Long 15:18:25 CHN M 0
204 CHEN Zhongliang 15:18:43 CHN M 0
205 WONG Tak Lun Terrence 15:20:23 HKG M 0
206 CAI Chun 15:20:24 BRA M 0
207 WALTON Claire 15:20:27 GBR F 28 F 0
208 MARSHALL Billie 15:20:38 NZL F 29 F 0
209 CHOI Yuet San 15:20:44 HKG Running Madhouse M 0
210 LI Yun 15:21:58 CHN M 0
211 ZHAO Jing 15:22:20 CHN F 30 F 0
212 LIM Kooi Hong 15:23:09 SGP M 0
213 HE Xi 15:24:39 CHN M 0
214 LI Mui Chun 15:24:55 HKG F 31 F 0
215 TSUI Sheung Kan 15:25:16 HKG M 0
216 YU Lihong 15:25:33 CHN F 32 F 0
217 YANG Zhida 15:26:44 CHN M 0
218 YUN HUA Long 15:26:47 CHN M 0
219 GUOYI Xu 15:27:10 CHN M 0
220 CHEN Jidong 15:27:23 CHN M 0
221 CAI Jie 15:27:32 CHN M 0
222 CHU Yueming 15:27:37 CHN M 0
223 YIP Man Chi 15:28:05 HKG F 33 F 0
224 ZHANG Weixian 15:28:29 CHN M 0
225 YIP Tony 15:29:33 HKG M 0
226 CHEN Haiguang 15:29:38 CHN M 0
227 VAN EETVELT Ivan 15:30:18 BEL M 0
228 BONNARD Julien 15:30:36 FRA M 0
229 MAO Wenbin 15:30:38 CHN M 0
230 XU Jie 15:31:21 CHN M 0
231 ZHANG Guoru 15:31:56 CHN M 0
232 KONG Xiangzhen 15:31:58 CHN M 0
233 CHAN Yuk Fai 15:32:14 HKG TNF Explorers / TNF E M 0
234 LI Xiaoyu 15:32:30 CHN YMT Trail M 0
235 QU Huai 15:32:55 CHN M 0
236 TSOI Wan Pang 15:33:24 HKG M 0
237 WEN Fenglin 15:33:29 CHN M 0
238 BLANCHARD Romain 15:34:41 FRA M 0
239 CHAN Tommy 15:34:48 HKG M 0
240 YANG Yang 15:35:28 CHN M 0
241 LEUNG Wing Yan Nicole 15:36:03 HKG F 34 F 0
242 YANG Bin 15:36:38 CHN F 35 F 0
243 YUAN Wen 15:36:48 CHN M 0
244 CAMPBELL Job 15:37:21 USA M 0
245 LI Kang 15:38:21 CHN M 0
246 MONTEMAYOR Irene 15:39:23 PHI F 36 F 0
247 DOEKES Martinus 15:39:24 NED M 0
248 CHEW Hanyu 15:39:58 SGP F 37 F 0
249 WATKINS Natalia 15:40:15 GBR F 38 F 0
250 WALTON Mark 15:40:16 NZL Joint Dynamics - Gone M 0
251 ROONEY Stuart 15:41:04 IRL M 0
252 YAN Hongming 15:41:12 CHN F 39 F 0
253 WANG Yang 15:41:21 CHN M 0
254 YU Ding 15:42:03 CHN M 0
255 ZHANG Rui 15:42:19 CHN M 0
256 RACHEL Christophe 15:42:32 FRA M 0
257 CHEN Yingzong 15:42:39 CHN M 0
258 WONG Chun Ming Mat 15:42:44 HKG M 0
259 FAN Yee Kan 15:43:47 HKG M 0
260 WU Xuanxia 15:43:56 CHN F 40 F 0
261 KWOK Man Ho 15:44:08 HKG M 0
262 YUM Eric 15:44:09 HKG M 0
263 AU Lap Ming Albert 15:44:55 HKG M 0
264 PENG Qian 15:45:46 CHN F 41 F 0
265 ZHOU Min 15:45:50 CHN M 0
266 CHAN Chi Kuen 15:46:47 HKG Walkermix M 0
267 CHAN Bee 15:46:50 HKG M 0
268 YANG Jiaping 15:46:51 CHN M 0
269 HUANG Bill 15:46:53 CAN M 0
270 ZHANG Jirong 15:46:57 CHN M 0
271 CHAN Lap Yee 15:47:00 HKG F 42 F 0
272 BAI Fuli 15:47:06 CHN Dad / Old birds M 0
273 ZHAN Guiyou 15:47:38 CHN M 0
274 NAKAGAWA Yoshinori 15:47:39 JPN M 0
275 GUO Liang 15:48:07 CHN M 0
276 WILLIAMS Rod 15:49:04 AUS M 0
277 YAO Ying 15:49:26 CHN M 0
278 LEE Junxiang 15:49:43 CHN M 0
279 CHAN Wai Hon 15:50:57 HKG M 0
280 CHAN Chung Yin Vincent 15:51:27 HKG M 0
281 LIU Kar Ho 15:51:27 HKG M 0
282 CHOI Pui Nang 15:51:27 HKG Team CTRun M 0
283 CHUI Chi Yuen 15:51:27 HKG Trailsport+ / TPH M 0
284 PANG Chung Cho 15:52:25 HKG M 0
285 LAW Man Ho 15:52:52 HKG M 0
286 LAU Ho Lan 15:53:04 HKG M 0
287 JIANG Chenfei 15:53:05 CHN M 0
288 HUANG Hongbin Robin 15:53:44 CHN M 0
289 MCCABE Richard 15:53:50 CAN M 0
290 WONG Onson 15:53:51 HKG M 0
291 CHAN Carson 15:54:07 HKG M 0
292 YE Zhongyi 15:54:30 CHN M 0
293 LIU Zhong Chun 15:54:30 CHN F 43 F 0
294 BI Duanyang 15:54:35 CHN M 0
295 WONG Pui Keung 15:54:45 HKG M 0
296 TAM Chi Chung Michael 15:55:56 HKG Invictus M 0
297 MCGUIRE Greg 15:55:56 CAN M 0
298 DENG Jiayu 15:56:19 CHN F 44 F 0
299 WONG Chun Lam Arnold 15:56:32 HKG M 0
300 SIU Kai Chee 15:56:59 HKG M 0
301 CHAN Chun Kit 15:57:08 HKG Castle Army M 0
302 LEUNG Hong Kiu Kimmy 15:57:09 HKG F 45 F 0
303 SUNG Pak Nagi 15:58:07 HKG M 0
304 KOWALIK Andrzej 15:58:11 POL M 0
305 CONTI Domenico 15:58:14 ITA M 0
306 YAO Jia 15:58:15 CHN M 0
307 DING Gang 15:58:32 CHN M 0
308 ZHOU Shanshan 15:58:40 CHN F 46 F 0
309 LO Kelvin 15:59:01 HKG M 0
310 MA Yue 16:00:33 CHN M 0
311 WANG Haimin 16:01:10 CHN M 0
312 LEUNG Moon Ka 16:01:14 HKG M 0
313 LAU Kim Wai 16:01:42 AUS M 0
314 CHAMBERS Carl 16:02:18 GBR M 0
315 CHEN Zhizhang 16:05:05 CHN M 0
316 CHEUNG Kin Man Ego 16:08:20 HKG M 0
317 ZHANG Lin 16:11:40 CHN F 47 F 0
318 ZHAO Junying 16:12:14 CHN M 0
319 LIU Shu 16:15:33 CHN M 0
320 KUCHER Katia 16:18:24 CAN F 48 F 0
321 TANG Wan Kwong 16:20:51 HKG M 0
322 JIN Hui 16:26:03 CHN F 49 F 0
323 GAO Sean 16:26:04 CHN M 0
324 TSE Tze Wai Karen 16:27:24 HKG F 50 F 0
325 TANG Adrian 16:27:59 AUS M 0
326 TAY Yong Wei 16:30:23 SGP M 0
327 CHAN Po Ming 16:30:49 HKG ThePeakHunter M 0
328 KWONG Chi Chun Rickie 16:31:43 HKG Faithwalkers M 0
329 ANDRIOL Sebastien 16:33:22 FRA Experun Performance / M 0
330 HASHIMOTO Kenji 16:33:46 JPN M 0
331 DING Yu Bo 16:34:13 CHN M 0
332 BEE Hai Chun 16:35:43 MAS M 0
333 CHEN Yu 16:36:13 CHN F 51 F 0
334 SOO Kin 16:37:28 HKG M 0
335 NIU Xiuqin 16:37:51 CHN F 52 F 0
336 CHEN Weidong 16:41:21 CHN M 0
337 SHEN Xiaoyang 16:42:47 CHN M 0
338 SHAM Sze Wan 16:46:21 HKG F 53 F 0
339 JI Guangkai 16:46:39 CHN M 0
340 SONG Yaping 16:47:07 CHN F 54 F 0
341 GERBER Brigitte 16:48:04 SUI F 55 F 0
342 SAISA ARD Sanporn 16:48:10 THA M 0
343 TAKAHIRO Suzuki 16:49:10 JPN M 0
344 LEE Oscar 16:50:42 HKG M 0
345 CAPILI Aleksis 16:56:52 PHI Malaybalay Runners M 0
346 ANDY Andy 16:57:38 HKG M 0
347 MCKINNON Iolaire 16:57:50 GBR M 0
348 LEUNG Kin Wai 16:59:21 HKG Mountastic 4 M 0
349 LI Fengchun 16:59:34 CHN F 56 F 0
350 ZHUANG Jianhong 17:00:51 CHN M 0
351 RENSEMA Doede 17:01:50 NED M 0
352 LEUNG Kwai Wah 17:03:59 HKG M 0
353 YE Xianfeng 17:06:29 CHN M 0
354 EASTWOOD Andrew 17:07:26 GBR M 0
355 BAUMGARTNER Markus 17:07:34 AUT TrailBrothers M 0
356 CHEUNG Sze Ying Jennifer 17:09:17 HKG F 57 F 0
357 SUZUKI Tatsuya 17:12:03 JPN M 0
358 BUCH LUND Patrik 17:14:21 FIN M 0
359 LAI Chi Shing Sunny 17:15:36 HKG M 0
360 BROUWER Cees 17:15:50 NED M 0
361 CHUNG Chun Leung 17:18:14 HKG M 0
362 CHEN Cheng 17:18:40 CHN M 0
363 MONGKHOLMALEE Wasin 17:19:01 THA M 0
364 ZHANG Hu 17:19:15 CHN M 0
365 HESKETH John 17:19:35 GBR M 0
366 LAU Kent 17:21:31 HKG M 0
367 KOBAYASHI Oku 17:22:48 JPN M 0
368 KYAW Pui Yu 17:23:11 HKG F 58 F 0
369 WONG Mei Ying 17:24:10 HKG F 59 F 0
370 ECKHARDT Marcel 17:25:19 NED M 0
371 KWOK Kam Chuen 17:25:46 HKG M 0
372 KWONG Hoi Tik 17:25:46 HKG M 0
373 FOX Ben 17:25:51 GBR M 0
374 CHOW Wai Keen Daniel 17:26:56 MAS M 0
375 ITOL Mark 17:27:28 PHI M 0
376 CHEN Wangzhou 17:27:29 CHN M 0
377 CAMPOS Rowell 17:28:19 PHI M 0
378 QIAO Yunting 17:31:22 CHN M 0
379 XIAO Bing 17:31:45 CHN M 0
380 CHOW Yiu Cho 17:31:53 HKG M 0
381 CHEN Jincan 17:32:38 CHN M 0
382 LIANG Yongjia 17:34:27 CHN M 0
383 OGAWA Ruriko 17:35:38 JPN F 60 F 0
384 GUAN Jintian 17:36:04 CHN M 0
385 HUANG Yimin 17:36:37 CHN M 0
386 CHOW Tat Chi 17:36:52 HKG M 0
387 TANG Dongxi 17:37:23 CHN M 0
388 WANG Xuanlv 17:37:45 CHN F 61 F 0
389 CHING Tak Cheung 17:38:14 HKG M 0
390 MORI Ryota 17:39:06 JPN M 0
391 RAJTAR Zbigniew 17:39:49 POL M 0
392 SMITH Robert 17:41:29 GBR M 0
393 KONG Steve 17:41:40 HKG M 0
394 LI Pui Yee 17:41:41 HKG F 62 F 0
395 FOO En Lin 17:41:45 MAS M 0
396 HICKS Gareth 17:41:57 GBR M 0
397 FROIDEVAUX Elliot 17:41:58 SUI M 0
398 MORIYA Mitsuo 17:42:00 JPN M 0
399 CHEUNG Billy 17:43:48 HKG M 0
400 LIANG Yali 17:43:59 CHN F 63 F 0
401 CHENG King Hang 17:45:35 HKG M 0
402 LIU Bing 17:45:39 CHN M 0
403 KOK LIN Chin 17:46:09 MAS M 0
404 MURRAY Francis 17:46:11 IRL M 0
405 RATTANASRIAMPAIPONG Ronnakrit 17:46:20 THA M 0
406 WONG Billy 17:47:01 HKG M 0
407 CHAN Ho Yin Eric 17:47:04 HKG M 0
408 SUN Zhe 17:47:12 CHN M 0
409 LAU Tommy 17:47:48 HKG M 0
410 HO Hung Kei 17:47:52 HKG M 0
411 TSE Miki 17:47:54 CHN F 64 F 0
412 CHUNG David 17:48:02 SGP M 0
413 QIAN Qingwen 17:48:06 CHN M 0
414 ZOU Yijie 17:48:07 CHN F 65 F 0
415 CHAN Hong Yin Kevin 17:50:26 AUS M 0
416 CHAN Thomas 17:50:27 AUS M 0
417 STRUCK Jared 17:50:39 USA M 0
418 HO Siu Tung Sam 17:51:13 HKG TPH & RMH M 0
419 HUANG Juei Hsing 17:51:20 TPE M 0
420 SUO Qiyi 17:51:26 CHN M 0
421 MAI Jialuo 17:52:59 CHN M 0
422 RODD Phil 17:53:18 GBR M 0
423 GABOTERO Magno Rafael 17:53:23 PHI M 0
424 LUK Wai Sing 17:54:09 HKG M 0
425 DICKSON Joshua 17:55:00 USA M 0
426 TONG Kin Man 17:56:11 HKG F 66 F 0
427 YUEN Yuk Tong Tommy 17:56:22 HKG TRab M 0
428 YINGRAM Wiwat 17:57:00 THA CityTrailRunners M 0
429 WU Qingwei 17:57:59 CHN M 0
430 MITCHELL Rory 17:58:18 GBR M 0
431 CHAN Jason 17:58:28 HKG M 0
432 YANG Yan 17:58:29 HKG F 67 F 0
433 MOU Chunhua 17:58:29 CHN F 68 F 0
434 KUEK Han Hiong 17:58:56 MAS M 0
435 ZHU Beixin 17:59:17 CHN F 69 F 0
436 CHAN Bianca 17:59:43 HKG F 70 F 0
437 RONG Weibin 18:01:06 CHN M 0
438 LAM Sau Kei Sherman 18:01:20 CAN M 0
439 ZHANG Lin#1271 18:02:02 CHN M 0
440 CHOI Kerensa 18:02:35 GBR F 71 F 0
441 SASAKI Naoko 18:03:31 JPN F 72 F 0
442 CHEN Alice 18:03:37 CHN F 73 F 0
443 HARVEY JONES Sam 18:03:51 GBR M 0
444 BIN Peng 18:05:01 VIE F 74 F 0
445 CHAN Desmond Y H 18:05:54 CAN M 0
446 SUM Andrew 18:07:17 HKG M 0
447 HO Joey 18:07:59 HKG M 0
448 LEECH Richard 18:08:19 RSA M 0
449 LEUNG Lilian 18:09:28 HKG F 75 F 0
450 QIU Xiaobin 18:09:32 CHN M 0
451 CHAN Adrian 18:09:39 HKG Shatin Runners Club M 0
452 CHIGNALL Nicholas 18:10:02 CAN M 0
453 LIU Chung Kan 18:10:53 HKG M 0
454 WATANABE Mayumi 18:13:04 JPN F 76 F 0
455 CHUNG George 18:13:23 HKG M 0
456 LIM Jinsik 18:14:22 KOR M 0
457 SIKORA Greg 18:14:48 POL M 0
458 KE Chunmei 18:15:46 CHN F 77 F 0
459 MURPHY Bryan 18:15:50 GBR M 0
460 TONG Alice 18:16:30 CHN F 78 F 0
461 U Chun Chung 18:16:40 MAC M 0
462 WONG Chi Ming 18:17:19 HKG M 0
463 CHAN Chi Tat 18:17:30 HKG M 0
464 KWOK Elvis 18:17:31 HKG M 0
465 GAN Wei Yong 18:17:39 MAS M 0
466 ZHU Chaoyang 18:18:47 CHN M 0
467 WU Zifu 18:18:57 CHN M 0
468 KENNELLY Sophia 18:18:59 NZL F 79 F 0
469 LAM Kai Hong Samson 18:19:29 HKG M 0
470 ICHIHARA Masayoshi 18:19:44 JPN M 0
471 KRIER Tim T R 18:20:14 USA M 0
472 LEE Benjamin 18:21:16 GBR M 0
473 FU Xing Jun 18:22:32 CHN M 0
474 LEE Cheuk Hin 18:22:55 HKG M 0
475 SIPS Robin 18:22:56 BEL M 0
476 WONG Hon Wing 18:22:59 HKG M 0
477 ZHOU Guijuan 18:23:06 CHN F 80 F 0
478 BURAPAVONG Witchawat 18:23:28 THA Intania Runner M 0
479 DING Jingqun 18:24:01 CHN M 0
480 CHAN Harvis 18:24:44 HKG M 0
481 GONG Jongsook 18:25:01 KOR F 81 F 0
482 LENG Dong 18:25:10 CHN M 0
483 CHAN Mo Kwan Monica 18:25:36 HKG F 82 F 0
484 TSE King Yin Isaac 18:27:15 HKG M 0
485 WONG Grant 18:27:25 CHN M 0
486 WANG Chung Yu 18:30:17 TPE M 0
487 NG Howard 18:30:26 HKG M 0
488 HUANG Xuping 18:32:22 CHN M 0
489 HUANG Christopher 18:32:28 USA M 0
490 KIECKEN Guillaume 18:32:50 FRA M 0
491 ZHU Yuxuan Vicki 18:34:08 SGP F 83 F 0
492 ZHENG Min 18:34:17 CHN F 84 F 0
493 DARBON Nathalie 18:34:38 FRA F 85 F 0
494 NGAMAMPORNNARA Phongsiri 18:34:48 THA M 0
495 CATTANEO Sergio 18:35:09 ITA M 0
496 ARIWI John 18:36:05 KEN M 0
497 GUAN Yongjian 18:36:26 CHN M 0
498 FUNG Yat Yin 18:36:34 HKG M 0
499 GU Jiangtao 18:36:40 CHN M 0
500 TO Chun Kit 18:37:02 HKG M 0


ReferencementCe site est listé dans la catégorie Sport : Sports extrêmes Dictionnaire
| Accueil | La Réunion  Vue du ciel | Météo | Cyclones | Volcan | Cirques de Mafate , Cilaos , Salazie | Photos Randonnées | Randonnées Réunion: Randos Espiègle , Courses montagne | Diagonale des Fous |  Marathon des Sables | Voyages Les stats du site | Fonds écran | Plan du site | Blog de runraid | Galerie photos Sport Réunion |